Regional Weather Roundup
Issued by NWS

Home | Current Version | Previous Version | Graphics & Text | Print | Product List | Glossary On
Versions: 1 2 3 4 5 6 7 8 9 10 11 12 13 14 15 16 17 18 19 20 21 22 23 24 25 26 27 28 29 30 31 32 33 34 35 36 37 38 39 40 41 42 43 44 45 46 47 48 49 50
000
ASUS43 KMPX 241501
RWRMN
WEATHER ROUNDUP FOR MINNESOTA
NATIONAL WEATHER SERVICE TWIN CITIES/CHANHASSEN MN
1000 AM CDT TUE MAY 24 2016


NOTE: "FAIR" INDICATES FEW OR NO CLOUDS BELOW 12,000 FEET WITH NO
SIGNIFICANT WEATHER AND/OR OBSTRUCTIONS TO VISIBILITY. N/A MEANS
CURRENT SKY AND/OR WEATHER CONDITIONS ARE NOT AVAILABLE.

MNZ060>063-068>070-241600-
   Twin Cities Metro

CITY           SKY/WX    TMP DP  RH WIND       PRES   REMARKS
TWIN CITIES    CLOUDY    74  62  66 W9        29.86S
ST PAUL        CLOUDY    73  62  68 W8        29.86S
CRYSTAL        CLOUDY    72  62  71 W10       29.85S
BLAINE         PTSUNNY   72  66  83 SW6       29.85F
EDEN PRAIRIE   CLOUDY    74  62  66 W8        29.85S
SOUTH ST PAUL  CLOUDY    74  62  65 SW9       29.86R
LAKE ELMO      FAIR      73  63  68 SW8       29.86F
$$
MNZ001>005-007-008-013>017-022>024-027-028-241600-
   Northwest Minnesota

CITY           SKY/WX    TMP DP  RH WIND       PRES   REMARKS
BEMIDJI        MOSUNNY   66  49  54 NW6       29.89R
HALLOCK        CLOUDY    63  55  77 N9        29.80F
ROSEAU         CLOUDY    63  54  72 N3        29.84S
WARROAD        CLOUDY    63  54  72 W9        29.85R
THIEF RVR FALL CLOUDY    66  50  55 N6        29.84R
CROOKSTON      SUNNY     66  52  59 SE3       29.84R
FOSSTON          N/A     57  55  94 SE5       29.84F
DETROIT LAKES  MOSUNNY   68  52  56 E8        29.88S
MOORHEAD       SUNNY     73  48  40 SE13G20   29.83R
PARK RAPIDS    MOSUNNY   67  53  61 N15       29.89R
MAHNOMEN       FAIR      61  53  75 E9        29.82F
$$
MNZ006-009>011-018-025>026-241600-
   North Central Minnesota

CITY           SKY/WX    TMP DP  RH WIND       PRES   REMARKS
BAUDETTE       CLOUDY    69  47  45 NW12      29.83R
FLAG ISLAND    PTSUNNY   63  54  72 S3        29.82R
INTL FALLS     PTSUNNY   70  56  61 SW9       29.83S
WASKISH        CLOUDY    63  54  72 SW12G18   29.88R
BIG FORK       CLOUDY    70  50  49 CALM      29.85S
LONGVILLE      SUNNY     66  57  72 NW6       29.88R
CRANE LAKE     PTSUNNY   63  61  94 CALM      29.86S
ORR            CLOUDY    61  55  82 CALM      29.82R
COOK           PTSUNNY   64  59  82 S6        29.85S
WALKER         FAIR      65  53  65 W13G21    29.90R
$$
MNZ012-019>021-037-241600-
   Northeast Minnesota

CITY           SKY/WX    TMP DP  RH WIND       PRES   REMARKS
DULUTH         MOSUNNY   64  57  78 E9        29.86R
ELY            CLOUDY    61  57  88 CALM      29.85S
HIBBING        CLOUDY    63  54  72 SE12      29.86R
EVELETH        MOSUNNY   63  52  67 CALM      29.86S
DULUTH HARBOR  PTSUNNY   55  55 100 NE3       29.86R FOG
TWO HARBORS    MOSUNNY   64  59  82 CALM      29.84S
SILVER BAY     LGT RAIN  61  59  94 CALM      29.84F
GRAND MARAIS     N/A     55  54  96 N5        29.88R
G MARAIS ARPRT DRIZZLE   61  55  82 CALM      29.91R
$$
MNZ029>031-032-039>041-046>048-054>057-064-241600-
   West Central Minnesota

CITY           SKY/WX    TMP DP  RH WIND       PRES   REMARKS
FERGUS FALLS   SUNNY     70  52  52 E9        29.83R
WHEATON        SUNNY     73  63  68 NE9       29.86R
MORRIS         SUNNY     73  61  64 SE8       29.83S
ALEXANDRIA     LGT RAIN  69  59  70 E9        29.87R
ELBOW LAKE     FAIR      70  58  65 SE16      29.85S
WADENA         SUNNY     68  52  56 CALM      29.87R
GLENWOOD       SUNNY     70  63  78 E7        29.86F
APPLETON       SUNNY     72  57  60 S3        29.84R
BENSON         SUNNY     72  57  60 SE7       29.84S
ORTONVILLE     SUNNY     70  54  56 S3        29.84F
MADISON        SUNNY     72  57  60 S5        29.85S
WILLMAR        FAIR      64  64 100 CALM      29.87F
$$
MNZ033>034-036-042>043-049>051-058-059-241600-
   Central Minnesota

CITY           SKY/WX    TMP DP  RH WIND       PRES   REMARKS
ST CLOUD       CLOUDY    66  62  87 W5        29.87S
SAUK CENTRE    CLOUDY    63  61  94 E7        29.87F FOG
PAYNESVILLE    PTSUNNY   67  64  90 CALM      29.87F
AITKIN         SUNNY     72  54  53 E7        29.85R
PINE RIVER     SUNNY     66  57  72 NW7       29.91R
BRAINERD       MOSUNNY   68  54  60 SE3       29.86R
STAPLES        SUNNY     70  48  46 SE6       29.86S
LONG PRAIRIE   PTSUNNY   64  59  82 E8        29.88S
LITTLE FALLS   SUNNY     68  59  73 SE3       29.87S
LITCHFIELD     CLOUDY    64  64 100 CALM      29.88S FOG
BUFFALO        CLOUDY    65  62  88 W7        29.88S FOG
MAPLE LAKE     CLOUDY    66  64  93 W3        29.89R FOG
HUTCHINSON     CLOUDY    69  65  90 W10       29.88S FOG
$$
MNZ037-044-045-052-053-241600-
   East Central Minnesota

CITY           SKY/WX    TMP DP  RH WIND       PRES   REMARKS
PRINCETON      CLOUDY    68  63  83 W5        29.86F
MORA           PTSUNNY   66  59  77 CALM      29.87S
CAMBRIDGE      PTSUNNY   70  59  68 NW7       29.85S
RUSH CITY      CLOUDY    67  62  86 W3        29.86F
MOOSE LAKE     CLOUDY    64  59  82 CALM      29.84S
HINCKLEY       PTSUNNY   70  63  78 NE3       29.85F
CLOQUET        MOSUNNY   66  57  72 E9        29.86R
MCGREGOR       SUNNY     68  59  73 E7        29.86R
$$
MNZ071>073-080-081-089-090-097-098-241600-
   Southwest Minnesota

CITY           SKY/WX    TMP DP  RH WIND       PRES   REMARKS
MONTEVIDEO     SUNNY     73  64  73 S3        29.86F
GRANITE FALLS  MOSUNNY   70  64  79 CALM      29.87S
CANBY          MOSUNNY   73  64  73 SE3       29.86F
MARSHALL       CLOUDY    69  61  75 NW6       29.87S
REDWOOD FALLS  CLOUDY    70  63  78 W6        29.86S
OLIVIA         CLOUDY    64  61  88 W3        29.86S FOG
PIPESTONE      CLOUDY    66  63  88 SW10      29.87S
WINDOM         MOSUNNY   70  61  73 S9        29.87S
WORTHINGTON    MOSUNNY   65  62  90 S16       29.89R
JACKSON        PTSUNNY   70  59  68 SW9       29.89S
TRACY          CLOUDY    72  64  78 NW9       29.87R
SLAYTON        MOSUNNY   70  61  74 S7        29.89R
$$
MNZ065>067-074>077-082>085-091>093-241600-
   South Central Minnesota

CITY           SKY/WX    TMP DP  RH WIND       PRES   REMARKS
MANKATO        CLOUDY    72  57  60 W13       29.88R
NEW ULM        CLOUDY    72  63  73 W10       29.86S
ST JAMES       CLOUDY    66  57  72 S7        29.88S
FAIRMONT       MOSUNNY   70  61  73 SW12      29.88S
GLENCOE        CLOUDY    70  64  83 SW6       29.86S
FARIBAULT      CLOUDY    72  61  68 SW13      29.88F
OWATONNA       CLOUDY    72  57  60 SW13      29.90R
WASECA         CLOUDY    72  57  60 W15       29.90S
ALBERT LEA     MOSUNNY   70  59  68 SW8       29.90S
$$
MNZ078>079-086>088-094>096-241600-
   Southeast Minnesota

CITY           SKY/WX    TMP DP  RH WIND       PRES   REMARKS
ROCHESTER      CLOUDY    69  64  84 W9        29.91R
RED WING       CLOUDY    73  63  68 W9        29.85S
STANTON        CLOUDY    73  60  63 W9G18     29.86S
DODGE CENTER   CLOUDY    72  59  64 SW15      29.90R
WINONA         CLOUDY    70  61  73 CALM      29.89F
AUSTIN         MOSUNNY   70  61  73 W10       29.90S
PRESTON        CLOUDY    68  60  74 W7        29.92S
$$
ABBREVIATIONS USED IN REMARKS
   TC - TEMPERATURES IN CELSIUS
  WCI - WIND CHILL INDEX
   HX - HEAT INDEX
  VSB - VISIBILITY
$$




USA.gov is the U.S. government's official web portal to all federal, state and local government web resources and services.